DW5890 Weather Reports


time (UTC)temp
C
wind
direction
speed
KPH
gust
KPH
rain 1hr
cm
rain 24hr
cm
rain mn
cm
humidity
%
barometer
mb
20260906220513 28 360 9.7 22.5 0.00 0.00 0.00 60 1012.9
20260906220012 28 342 14.5 20.9 0.00 0.00 0.00 60 1013.0
20260906215511 28 355 11.3 22.5 0.00 0.00 0.00 62 1013.1
20260906215010 28 9 12.9 22.5 0.00 0.00 0.00 62 1013.1
20260906214509 27 25 14.5 22.5 0.00 0.00 0.00 63 1013.2
20260906214009 27 342 11.3 20.9 0.00 0.00 0.00 62 1013.2
20260906213008 27 9 12.9 22.5 0.00 0.00 0.00 64 1013.4
20260906212508 27 355 11.3 24.1 0.00 0.00 0.00 65 1013.6
20260906212006 27 342 12.9 24.1 0.00 0.00 0.00 66 1013.7
20260906211508 27 331 12.9 19.3 0.00 0.00 0.00 66 1013.7
20260906211004 26 355 8.0 20.9 0.00 0.00 0.00 67 1013.9
20260906210505 26 330 14.5 20.9 0.00 0.00 0.00 68 1014.0
20260906205502 26 24 14.5 22.5 0.00 0.00 0.00 68 1014.2
20260906205004 26 318 14.5 22.5 0.00 0.00 0.00 68 1014.4
20260906204502 26 342 14.5 20.9 0.00 0.00 0.00 69 1014.5
20260906204100 26 318 11.3 20.9 0.00 0.00 0.00 70 1014.6
20260906203101 26 355 8.0 17.7 0.00 0.00 0.00 71 1014.7
20260906202558 26 17 6.4 19.3 0.00 0.00 0.00 72 1014.8
20260906202057 26 344 11.3 17.7 0.00 0.00 0.00 72 1014.8
20260906201607 25 22 6.4 14.5 0.00 0.00 0.00 72 1014.9
20260906201056 25 321 4.8 16.1 0.00 0.00 0.00 73 1015.0
20260906200555 25 346 9.7 16.1 0.00 0.00 0.00 73 1015.1
20260906200055 25 308 3.2 16.1 0.00 0.00 0.00 74 1015.0
20260906195555 25 302 8.0 16.1 0.00 0.00 0.00 74 1015.1
20260906195052 25 9 8.0 16.1 0.00 0.00 0.00 75 1015.1
20260906194552 24 340 6.4 16.1 0.00 0.00 0.00 76 1015.2
20260906194051 24 331 8.0 20.9 0.00 0.00 0.00 77 1015.3
20260906193050 24 315 4.8 17.7 0.00 0.00 0.00 77 1015.3
20260906192548 23 317 6.4 20.9 0.00 0.00 0.00 78 1015.3
20260906192048 23 320 12.9 25.7 0.00 0.00 0.00 78 1015.4
20260906191547 23 315 9.7 17.7 0.00 0.00 0.00 79 1015.5
20260906191047 23 282 8.0 16.1 0.00 0.00 0.00 81 1015.6
20260906190549 23 325 4.8 14.5 0.00 0.00 0.00 80 1015.6
20260906190046 23 346 8.0 14.5 0.00 0.00 0.00 80 1015.6
20260906185547 23 334 9.7 14.5 0.00 0.00 0.00 79 1015.7
20260906185045 23 313 6.4 12.9 0.00 0.00 0.00 81 1015.8
20260906184549 22 329 1.6 12.9 0.00 0.00 0.00 83 1016.0
20260906184042 22 282 4.8 14.5 0.00 0.00 0.00 84 1015.9
20260906183044 22 282 3.2 9.7 0.00 0.00 0.00 85 1016.0
20260906182542 22 341 3.2 6.4 0.00 0.00 0.00 86 1016.1
20260906182041 21 277 0.0 8.0 0.00 0.00 0.00 88 1016.2
20260906181540 21 338 1.6 8.0 0.00 0.00 0.00 88 1016.1
20260906181038 21 338 4.8 8.0 0.00 0.00 0.00 89 1016.2
20260906180538 21 323 4.8 8.0 0.00 0.00 0.00 89 1016.2
20260906180056 21 24 1.6 8.0 0.00 0.00 0.00 90 1016.1
20260906175537 20 40 4.8 8.0 0.00 0.00 0.00 91 1016.2
20260906175034 20 40 0.0 8.0 0.00 0.00 0.00 91 1016.2
20260906174537 20 59 0.0 4.8 0.00 0.00 0.00 92 1016.5
20260906174035 20 59 0.0 8.0 0.00 0.00 0.00 92 1016.6
20260906173031 20 59 4.8 8.0 0.00 0.00 0.00 93 1016.5
20260906172530 20 41 1.6 12.9 0.00 0.00 0.00 94 1016.2
20260906172031 20 40 6.4 12.9 0.00 0.00 0.00 94 1016.1
20260906171529 19 323 3.2 14.5 0.00 0.00 0.00 94 1016.2
20260906171029 19 317 1.6 12.9 0.00 0.00 0.00 94 1016.1
20260906170530 19 334 4.8 14.5 0.00 0.00 0.00 95 1016.2
20260906170028 19 10 6.4 14.5 0.00 0.00 0.00 95 1016.2
20260906165529 19 360 6.4 14.5 0.00 0.00 0.00 95 1016.1
20260906165028 19 323 6.4 17.7 0.00 0.00 0.00 96 1016.1
20260906164529 19 323 12.9 20.9 0.00 0.00 0.00 96 1016.2
20260906164029 19 335 11.3 16.1 0.00 0.00 0.00 96 1016.1
20260906163029 18 310 8.0 14.5 0.00 0.00 0.00 96 1016.2
20260906162529 18 323 8.0 17.7 0.00 0.00 0.00 96 1016.4
20260906162027 19 329 12.9 17.7 0.00 0.00 0.00 96 1016.2
20260906161527 18 313 8.0 16.1 0.00 0.00 0.00 96 1016.2
20260906161026 18 325 8.0 16.1 0.00 0.00 0.00 97 1016.2
20260906160526 18 304 9.7 16.1 0.00 0.00 0.00 97 1016.0
20260906160026 18 294 9.7 16.1 0.00 0.00 0.00 97 1015.8
20260906155528 18 314 11.3 16.1 0.00 0.00 0.00 97 1015.6
20260906155024 18 313 12.9 16.1 0.00 0.00 0.00 97 1015.7
20260906154522 18 322 9.7 16.1 0.00 0.00 0.00 97 1015.8
20260906154021 18 15 4.8 14.5 0.00 0.00 0.00 97 1015.7
20260906153019 18 9 9.7 14.5 0.00 0.00 0.00 97 1015.5
20260906152519 18 30 6.4 14.5 0.00 0.00 0.00 97 1015.6
20260906152019 18 21 8.0 16.1 0.00 0.00 0.00 97 1015.5
20260906151519 18 40 9.7 16.1 0.00 0.00 0.00 97 1015.5
20260906151018 18 35 9.7 14.5 0.00 0.00 0.00 97 1015.3
20260906150519 18 24 8.0 14.5 0.00 0.00 0.00 97 1015.5
20260906150024 18 20 8.0 17.7 0.00 0.00 0.00 97 1015.4
20260906145518 18 26 9.7 19.3 0.00 0.00 0.00 97 1015.4
20260906145019 18 360 14.5 17.7 0.00 0.00 0.00 97 1015.3
20260906144521 18 14 8.0 14.5 0.00 0.00 0.00 96 1015.5
20260906144019 18 26 4.8 14.5 0.00 0.00 0.00 96 1015.7
20260906143028 18 42 8.0 14.5 0.00 0.00 0.00 97 1016.0
20260906142519 18 22 4.8 14.5 0.00 0.00 0.00 97 1015.8
20260906142019 18 355 4.8 16.1 0.00 0.00 0.00 97 1015.6
20260906141518 18 351 8.0 17.7 0.00 0.00 0.00 97 1015.4
20260906141118 18 12 11.3 17.7 0.00 0.00 0.00 97 1015.5
20260906140518 18 14 8.0 14.5 0.00 0.00 0.00 97 1015.4
20260906140029 18 355 8.0 14.5 0.00 0.00 0.00 97 1015.5
20260906135524 18 318 3.2 4.8 0.00 0.00 0.00 97 1015.7
20260906135019 18 318 3.2 4.8 0.00 0.00 0.00 97 1015.8
20260906134518 18 318 0.0 1.6 0.00 0.00 0.00 96 1015.9
20260906134021 18 318 0.0 4.8 0.00 0.00 0.00 96 1016.0
20260906133017 18 318 3.2 12.9 0.00 0.00 0.00 96 1016.0
20260906132517 18 315 8.0 12.9 0.00 0.00 0.00 96 1015.9
20260906132019 18 21 4.8 14.5 0.00 0.00 0.00 96 1016.0
20260906131531 18 347 8.0 17.7 0.00 0.00 0.00 96 1015.7
20260906131017 18 9 9.7 17.7 0.00 0.00 0.00 96 1015.6
20260906130517 18 360 8.0 33.8 0.00 0.00 0.00 97 1015.9
20260906130016 18 32 25.7 33.8 0.00 0.00 0.00 96 1015.1
20260906125516 18 329 20.9 27.4 0.00 0.00 0.00 97 1014.9
20260906125016 18 16 19.3 33.8 0.00 0.00 0.00 96 1014.6
20260906124515 18 46 20.9 38.6 0.00 0.00 0.00 96 1014.5
20260906124016 18 17 29.0 38.6 0.00 0.00 0.00 96 1014.1
20260906123617 18 9 27.4 33.8 0.00 0.00 0.00 96 1014.7
20260906123014 18 14 22.5 30.6 0.00 0.00 0.00 96 1014.9
20260906122513 18 355 17.7 22.5 0.00 0.00 0.00 96 1015.6
20260906122012 18 348 6.4 12.9 0.00 0.00 0.00 96 1016.5
20260906121513 18 311 6.4 8.0 0.00 0.00 0.00 96 1016.7
20260906121012 18 313 4.8 8.0 0.00 0.00 0.00 96 1016.8
20260906120512 18 312 0.0 4.8 0.00 0.00 0.00 96 1017.3
20260906120012 18 312 0.0 4.8 0.00 0.00 0.00 96 1017.3
20260906115513 18 312 1.6 6.4 0.00 0.00 0.00 96 1017.4
20260906115012 18 312 1.6 8.0 0.00 0.00 0.00 96 1017.1
20260906114509 18 313 4.8 14.5 0.00 0.00 0.00 96 1016.6
20260906114008 18 325 8.0 20.9 0.00 0.00 0.00 96 1016.3
20260906113009 18 332 16.1 22.5 0.00 0.00 0.00 96 1015.9
20260906112509 18 321 16.1 22.5 0.00 0.00 0.00 96 1015.8
20260906112009 18 317 14.5 22.5 0.00 0.00 0.00 96 1016.1
20260906111508 18 320 14.5 19.3 0.00 0.00 0.00 96 1015.9
20260906111008 18 297 12.9 19.3 0.00 0.00 0.00 96 1016.1
20260906110509 17 313 9.7 14.5 0.00 0.00 0.00 96 1016.3
20260906110007 17 300 11.3 14.5 0.00 0.00 0.00 96 1016.4
20260906105508 17 290 6.4 12.9 0.00 0.00 0.00 96 1016.4
20260906105007 16 261 3.2 6.4 0.00 0.00 0.00 95 1016.1
20260906104507 16 205 1.6 4.8 0.00 0.00 0.00 95 1016.1
20260906104006 16 205 0.0 4.8 0.00 0.00 0.00 95 1016.0
20260906103005 17 205 1.6 4.8 0.00 0.00 0.00 95 1016.2
20260906102504 17 205 1.6 6.4 0.00 0.00 0.00 95 1016.4
20260906102004 17 205 3.2 6.4 0.00 0.00 0.00 95 1016.2
20260906101503 17 190 3.2 6.4 0.00 0.00 0.00 95 1016.3
20260906101002 17 189 1.6 8.0 0.00 0.00 0.00 95 1016.5
20260906100502 17 184 3.2 8.0 0.00 0.00 0.00 95 1016.5
20260906100001 17 171 6.4 8.0 0.00 0.00 0.00 95 1016.5
20260906095502 17 61 0.0 4.8 0.00 0.00 0.00 95 1016.3
20260906095101 17 61 1.6 4.8 0.00 0.00 0.00 94 1016.2
20260906094604 17 61 3.2 6.4 0.00 0.00 0.00 94 1015.9
20260906094059 17 61 4.8 6.4 0.00 0.00 0.00 95 1015.8
20260906093659 17 32 1.6 4.8 0.00 0.00 0.00 94 1015.7
20260906093059 17 38 1.6 4.8 0.00 0.00 0.00 94 1015.6
20260906092558 17 40 1.6 4.8 0.00 0.00 0.00 94 1015.6
20260906092058 17 35 3.2 4.8 0.00 0.00 0.00 94 1015.4
20260906091603 18 32 1.6 6.4 0.00 0.00 0.00 94 1015.3
20260906091056 18 32 3.2 6.4 0.00 0.00 0.00 94 1015.4
20260906090556 18 32 1.6 8.0 0.00 0.00 0.00 93 1015.6
20260906090059 18 33 4.8 9.7 0.00 0.00 0.00 94 1015.6
20260906085555 18 26 4.8 14.5 0.00 0.00 0.00 93 1015.5
20260906085058 18 23 9.7 16.1 0.00 0.00 0.00 93 1015.5
20260906084555 18 22 6.4 17.7 0.00 0.00 0.00 93 1015.4
20260906084055 18 18 12.9 17.7 0.00 0.00 0.00 93 1015.4
20260906083652 18 11 12.9 17.7 0.00 0.00 0.00 93 1015.3
20260906083054 18 17 11.3 17.7 0.00 0.00 0.00 93 1015.3
20260906082551 18 26 11.3 16.1 0.00 0.00 0.00 93 1015.2
20260906082054 18 20 9.7 16.1 0.00 0.00 0.00 92 1015.3
20260906081550 18 24 11.3 16.1 0.00 0.00 0.00 92 1015.5
20260906081049 18 29 9.7 14.5 0.00 0.00 0.00 92 1015.6
20260906080548 18 32 9.7 14.5 0.00 0.00 0.00 92 1015.7
20260906080050 18 30 9.7 14.5 0.00 0.00 0.00 92 1015.6
20260906075546 19 32 9.7 14.5 0.00 0.00 0.00 92 1015.6
20260906075045 19 34 9.7 17.7 0.00 0.00 0.00 91 1015.9
20260906074545 19 36 9.7 17.7 0.00 0.00 0.00 91 1015.7
20260906074044 19 27 12.9 20.9 0.00 0.00 0.00 91 1015.7
20260906073644 19 24 11.3 16.1 0.00 0.00 0.00 91 1015.9
20260906073045 19 26 11.3 16.1 0.00 0.00 0.00 91 1015.9
20260906072543 19 26 12.9 16.1 0.00 0.00 0.00 91 1015.8
20260906072042 19 23 11.3 17.7 0.00 0.00 0.00 91 1015.8
20260906071556 19 18 14.5 17.7 0.00 0.00 0.00 91 1015.8
20260906071041 19 22 11.3 17.7 0.00 0.00 0.00 91 1015.8
20260906070540 19 29 11.3 17.7 0.00 0.00 0.00 91 1016.0
20260906070040 19 26 11.3 17.7 0.00 0.00 0.00 91 1016.0
20260906065540 19 22 11.3 17.7 0.00 0.00 0.00 90 1016.0
20260906065141 19 21 11.3 16.1 0.00 0.00 0.00 90 1015.9
20260906064539 19 17 11.3 16.1 0.00 0.00 0.00 90 1016.1
20260906064040 19 23 11.3 16.1 0.00 0.00 0.00 90 1016.1
20260906063640 19 22 11.3 14.5 0.00 0.00 0.00 90 1016.1
20260906063040 19 19 11.3 14.5 0.00 0.00 0.00 90 1016.1
20260906062540 19 16 11.3 17.7 0.00 0.00 0.00 89 1016.1
20260906062040 19 23 11.3 17.7 0.00 0.00 0.00 89 1016.1
20260906061540 19 19 11.3 17.7 0.00 0.00 0.00 89 1015.9
20260906061039 19 13 11.3 16.1 0.00 0.00 0.00 89 1016.0
20260906060540 19 9 11.3 16.1 0.00 0.00 0.00 89 1016.0
20260906060040 19 9 11.3 17.7 0.00 0.00 0.00 88 1016.0
20260906055540 20 360 12.9 17.7 0.00 0.00 0.00 88 1016.0
20260906055039 20 9 12.9 16.1 0.00 0.00 0.00 88 1016.0
20260906054538 20 5 11.3 16.1 0.00 0.00 0.00 88 1016.0
20260906054040 20 11 11.3 16.1 0.00 0.00 0.00 87 1015.9
20260906053639 20 342 8.0 14.5 0.00 0.00 0.00 87 1016.1
20260906053039 20 346 6.4 14.5 0.00 0.00 0.00 87 1016.2
20260906052538 20 355 9.7 16.1 0.00 0.00 0.00 87 1016.2
20260906052039 20 338 12.9 16.1 0.00 0.00 0.00 87 1016.1
20260906051537 20 336 11.3 16.1 0.00 0.00 0.00 86 1016.3
20260906051038 20 318 11.3 17.7 0.00 0.00 0.00 86 1016.3
20260906050540 20 325 11.3 17.7 0.00 0.00 0.00 86 1016.2
20260906050042 20 323 11.3 16.1 0.00 0.00 0.00 85 1016.2
20260906045541 20 327 9.7 16.1 0.00 0.00 0.00 85 1016.2
20260906045037 20 326 8.0 12.9 0.00 0.00 0.00 85 1016.5
20260906044537 20 319 6.4 8.0 0.00 0.00 0.00 84 1016.5
20260906044036 20 319 4.8 9.7 0.00 0.00 0.00 84 1016.4
20260906043537 20 331 4.8 8.0 0.00 0.00 0.00 83 1016.5
20260906043040 20 332 4.8 8.0 0.00 0.00 0.00 83 1016.5
20260906042536 20 333 4.8 8.0 0.00 0.00 0.00 82 1016.5
20260906042036 21 334 6.4 8.0 0.00 0.00 0.00 82 1016.4
20260906041536 21 360 4.8 9.7 0.00 0.00 0.00 82 1016.4
20260906041037 21 348 4.8 12.9 0.00 0.00 0.00 81 1016.3
20260906040536 21 5 6.4 14.5 0.00 0.00 0.00 81 1016.6
20260906040039 21 360 9.7 14.5 0.00 0.00 0.00 81 1016.6
20260906035537 21 5 8.0 16.1 0.00 0.00 0.00 80 1016.7
20260906035036 21 360 11.3 16.1 0.00 0.00 0.00 80 1016.7
20260906034543 21 12 11.3 16.1 0.00 0.00 0.00 80 1016.7
20260906034035 21 11 11.3 16.1 0.00 0.00 0.00 79 1016.7
20260906033637 21 11 9.7 16.1 0.00 0.00 0.00 79 1016.7
20260906033036 22 11 9.7 16.1 0.00 0.00 0.00 79 1016.7
20260906032535 22 16 11.3 16.1 0.00 0.00 0.00 78 1016.7
20260906032035 22 33 11.3 16.1 0.00 0.00 0.00 79 1016.7
20260906031536 21 30 9.7 16.1 0.00 0.00 0.00 79 1016.7
20260906031035 21 26 9.7 12.9 0.00 0.00 0.00 80 1016.7
20260906030535 21 26 6.4 12.9 0.00 0.00 0.00 80 1016.5
20260906030034 21 11 6.4 11.3 0.00 0.00 0.00 79 1016.5
20260906025534 21 5 4.8 6.4 0.00 0.00 0.00 79 1016.4
20260906025034 21 9 4.8 6.4 0.00 0.00 0.00 78 1016.3
20260906024533 21 9 4.8 6.4 0.00 0.00 0.00 77 1016.2
20260906024033 21 5 4.8 9.7 0.00 0.00 0.00 77 1016.3
20260906023533 22 9 8.0 12.9 0.00 0.00 0.00 75 1016.2
20260906023032 22 9 8.0 12.9 0.00 0.00 0.00 75 1016.2
20260906022531 22 5 8.0 11.3 0.00 0.00 0.00 74 1016.1
20260906022035 22 9 3.2 8.0 0.00 0.00 0.00 74 1016.0
20260906021531 23 9 4.8 8.0 0.00 0.00 0.00 73 1016.0
20260906021032 23 5 4.8 9.7 0.00 0.00 0.00 73 1016.0
20260906020529 23 9 6.4 12.9 0.00 0.00 0.00 73 1015.9
20260906020029 23 9 9.7 14.5 0.00 0.00 0.00 72 1015.8
20260906015529 23 12 9.7 17.7 0.00 0.00 0.00 72 1015.8
20260906015030 23 9 11.3 17.7 0.00 0.00 0.00 71 1015.6
20260906014540 24 28 12.9 19.3 0.00 0.00 0.00 71 1015.7
20260906014030 24 16 14.5 20.9 0.00 0.00 0.00 70 1015.6
20260906013627 25 360 16.1 22.5 0.00 0.00 0.00 69 1015.6
20260906013028 25 10 17.7 22.5 0.00 0.00 0.00 69 1015.5
20260906012526 25 9 16.1 20.9 0.00 0.00 0.00 69 1015.5
20260906012026 25 360 16.1 25.7 0.00 0.00 0.00 68 1015.2
20260906011536 25 10 17.7 27.4 0.00 0.00 0.00 67 1015.0
20260906011026 26 10 17.7 27.4 0.00 0.00 0.00 66 1014.9
20260906010525 26 360 14.5 22.5 0.00 0.00 0.00 66 1014.8
20260906010026 26 360 17.7 22.5 0.00 0.00 0.00 65 1014.8
20260906005526 27 360 16.1 24.1 0.00 0.00 0.00 65 1014.5
20260906005033 27 355 19.3 24.1 0.00 0.00 0.00 64 1014.5
20260906004535 27 344 14.5 22.5 0.00 0.00 0.00 63 1014.6
20260906004024 27 346 14.5 22.5 0.00 0.00 0.00 63 1014.5
20260906003625 28 355 14.5 24.1 0.00 0.00 0.00 62 1014.5
20260906003038 28 345 16.1 24.1 0.00 0.00 0.00 62 1014.4
20260906002524 28 336 14.5 24.1 0.00 0.00 0.00 61 1014.6
20260906002023 28 351 12.9 24.1 0.00 0.00 0.00 60 1014.4
20260906001526 28 329 12.9 19.3 0.00 0.00 0.00 59 1014.5
20260906001022 28 309 9.7 17.7 0.00 0.00 0.00 59 1014.4
20260906000526 28 343 9.7 19.3 0.00 0.00 0.00 59 1014.4
20260906000022 28 322 12.9 19.3 0.00 0.00 0.00 59 1014.5
20260905235520 28 339 9.7 17.7 0.00 0.00 0.00 59 1014.4
20260905235020 28 319 9.7 17.7 0.00 0.00 0.00 59 1014.4
20260905234518 28 360 12.9 17.7 0.00 0.00 0.00 58 1014.3
20260905234019 28 339 6.4 19.3 0.00 0.00 0.00 59 1014.2
20260905233617 28 326 9.7 19.3 0.00 0.00 0.00 58 1014.3
20260905233019 28 344 11.3 19.3 0.00 0.00 0.00 57 1014.3
20260905232517 28 351 11.3 22.5 0.00 0.00 0.00 57 1014.2
20260905232022 28 348 16.1 22.5 0.00 0.00 0.00 57 1014.1
20260905231517 28 291 14.5 19.3 0.00 0.00 0.00 58 1014.1
20260905231016 28 327 9.7 19.3 0.00 0.00 0.00 58 1014.1
20260905230515 28 302 14.5 20.9 0.00 0.00 0.00 58 1014.2
20260905230017 28 321 6.4 20.9 0.00 0.00 0.00 58 1014.2
20260905225514 28 306 14.5 20.9 0.00 0.00 0.00 57 1014.0
20260905225014 28 302 14.5 20.9 0.00 0.00 0.00 57 1014.0
20260905224524 28 342 12.9 20.9 0.00 0.00 0.00 57 1014.1
20260905224013 28 326 8.0 20.9 0.00 0.00 0.00 58 1014.1
20260905223613 28 324 14.5 24.1 0.00 0.00 0.00 58 1014.1
20260905223014 28 314 16.1 24.1 0.00 0.00 0.00 58 1014.3
20260905222519 28 314 14.5 22.5 0.00 0.00 0.00 58 1014.2
20260905222014 28 306 11.3 17.7 0.00 0.00 0.00 58 1014.2
20260905221513 28 300 11.3 20.9 0.00 0.00 0.00 58 1014.3
20260905221014 28 293 14.5 20.9 0.00 0.00 0.00 59 1014.3